{"data":{"norad_id":58321,"epoch":"2026-05-24T11:38:54.113856Z","epoch_age_seconds":126282,"freshness":"FRESH","line1":"1 58321U 23174BT  26144.48534854  .00002641  00000+0  90684-4 0  9997","line2":"2 58321  97.3774 223.0297 0005417 248.5361 111.5303 15.31022848141340","mean_motion":15.31022848,"eccentricity":0.0005417,"inclination_deg":97.3774,"raan_deg":223.0297,"arg_perigee_deg":248.5361,"mean_anomaly_deg":111.5303,"bstar":9.0684e-5,"rev_number":14134,"period_min":94.05476880251,"perigee_km":469.04816352685,"apogee_km":476.47042457182,"semimajor_km":6850.8962940493,"source":"CELESTRAK","updated_at":"2026-05-25T13:38:00.675016Z"}}